Andravida, Greece

7:34 AM EEST on May 27, 2018 (GMT +0300)
Andravida Air Base

Weather History for LGAD - January, 2013

Change the Weather History Date:

Saturday, January 12, 2013

  Actual Average Record
Temperature  
Mean Temperature 51 °F -  
Max Temperature 58 °F 55 °F 65 °F (2016)
Min Temperature 44 °F 39 °F 28 °F (2006)
Degree Days  
Heating Degree Days 14    
Growing Degree Days 1 (Base 50)    
Moisture  
Dew Point 45 °F    
Average Humidity 76    
Maximum Humidity 93    
Minimum Humidity 55    
Precipitation  
Precipitation 0.04 in - - ()
Sea Level Pressure  
Sea Level Pressure 29.95 in    
Wind  
Wind Speed 4 mph ()    
Max Wind Speed 15 mph    
Max Gust Speed -    
Visibility 6.1 miles    
Events Rain , Thunderstorm    
Averages and records for this station are not official NWS values.
T = Trace of Precipitation, MM = Missing Value Source: Averaged Metar Reports

Daily Weather History Graph

Daily Weather History Graph

Search for Another Location

Airport or City:

Astronomy

Jan. 12, 2013 Rise Set
Actual Time 7:50 AM EET 5:36 PM EET
Civil Twilight 7:21 AM EET 6:05 PM EET
Nautical Twilight 6:48 AM EET 6:37 PM EET
Astronomical Twilight 6:17 AM EET 7:09 PM EET
Moon 7:57 AM EET (1/12) 6:41 PM EET (1/12)
Length of Visible Light 10h 43m
Length of Day
9h 46m
New Moon, 1% of the Moon is Illuminated
Jan 12
New Moon
Jan 19
First Quarter
Jan 27
Full
Feb 3
Last Quarter
Feb 10
New

Hourly Weather History & Observations

Time (EET) Temp. Dew Point Humidity Pressure Visibility Wind Dir Wind Speed Gust Speed Precip Events Conditions
2:00 AM 50 °F 47 °F 85% 29.88 in 6 mi South 4.6 mph - -   Partly Cloudy
2:50 AM 50.0 °F 46.4 °F 87% 29.86 in 6.2 mi South 4.6 mph - N/A   Scattered Clouds
4:50 AM 51.8 °F 46.4 °F 82% 29.86 in 6.2 mi Calm Calm - N/A   Scattered Clouds
5:20 AM 51.8 °F 46.4 °F 82% 29.86 in 6.2 mi Calm Calm - N/A   Scattered Clouds
6:20 AM 51.8 °F 46.4 °F 82% 29.83 in 6.2 mi Calm Calm - N/A   Scattered Clouds
6:50 AM 53.6 °F 44.6 °F 72% 29.86 in 6.2 mi West 8.1 mph - N/A   Mostly Cloudy
7:20 AM 50.0 °F 44.6 °F 82% 29.83 in 6.2 mi NNW 5.8 mph - N/A Thunderstorm Thunderstorm
7:50 AM 50.0 °F 44.6 °F 82% 29.89 in 3.7 mi West 15.0 mph - N/A Rain , Thunderstorm Light Thunderstorms and Rain
8:00 AM 50 °F 45 °F 77% 29.89 in 4 mi West 15.0 mph - - Rain , Thunderstorm Thunderstorms and Rain
8:20 AM 50.0 °F 46.4 °F 87% 29.86 in 6.2 mi Calm Calm - N/A   Mostly Cloudy
8:50 AM 48.2 °F 46.4 °F 93% 29.86 in 6.2 mi South 4.6 mph - N/A   Scattered Clouds
9:20 AM 48.2 °F 46.4 °F 93% 29.86 in 6.2 mi South 4.6 mph - N/A   Scattered Clouds
9:50 AM 51.8 °F 46.4 °F 82% 29.89 in 6.2 mi SSE 5.8 mph - N/A   Scattered Clouds
10:20 AM 51.8 °F 46.4 °F 82% 29.89 in 6.2 mi SSE 5.8 mph - N/A Rain Light Rain
10:50 AM 57.2 °F 50.0 °F 77% 29.89 in 6.2 mi SW 5.8 mph - N/A Rain Light Rain
11:20 AM 55.4 °F 48.2 °F 77% 29.92 in 6.2 mi Calm Calm - N/A   Scattered Clouds
11:50 AM 59.0 °F 46.4 °F 63% 29.89 in 6.2 mi West 15.0 mph - N/A   Scattered Clouds
12:20 PM 59.0 °F 46.4 °F 63% 29.89 in 6.2 mi West 15.0 mph - N/A   Scattered Clouds
12:50 PM 59.0 °F 48.2 °F 67% 29.92 in 6.2 mi NW 6.9 mph - N/A   Scattered Clouds
1:20 PM 59.0 °F 48.2 °F 67% 29.92 in 6.2 mi NW 6.9 mph - N/A   Scattered Clouds
1:50 PM 57.2 °F 46.4 °F 67% 29.92 in 6.2 mi NNW 6.9 mph - N/A   Scattered Clouds
2:00 PM 58 °F 46 °F 55% 29.93 in 6 mi NNW 6.9 mph - -   Partly Cloudy
2:20 PM 57.2 °F 46.4 °F 67% 29.92 in 6.2 mi NNW 6.9 mph - N/A   Scattered Clouds
2:50 PM 55.4 °F 46.4 °F 72% 29.95 in 6.2 mi NNW 4.6 mph - N/A   Scattered Clouds
3:20 PM 55.4 °F 46.4 °F 72% 29.95 in 6.2 mi NNW 4.6 mph - N/A   Scattered Clouds
3:50 PM 55.4 °F 46.4 °F 72% 29.95 in 6.2 mi Calm Calm - N/A   Scattered Clouds
4:20 PM 55.4 °F 46.4 °F 72% 29.95 in 6.2 mi Calm Calm - N/A   Scattered Clouds
4:50 PM 57.2 °F 46.4 °F 67% 29.98 in 6.2 mi Calm Calm - N/A   Scattered Clouds
5:20 PM 57.2 °F 46.4 °F 67% 29.98 in 6.2 mi Calm Calm - N/A   Scattered Clouds
5:50 PM 53.6 °F 44.6 °F 72% 30.01 in 6.2 mi Calm Calm - N/A   Scattered Clouds
6:20 PM 50.0 °F 42.8 °F 76% 30.01 in 6.2 mi Calm Calm - N/A   Scattered Clouds
6:50 PM 51.8 °F 41.0 °F 67% 30.01 in 6.2 mi NW 4.6 mph - N/A   Scattered Clouds
7:20 PM 51.8 °F 41.0 °F 67% 30.01 in 6.2 mi NW 4.6 mph - N/A   Scattered Clouds
7:50 PM 50.0 °F 41.0 °F 71% 30.04 in 6.2 mi Calm Calm - N/A   Partly Cloudy
8:00 PM 50 °F 40 °F 60% 30.04 in 6 mi Calm Calm - -   Scattered Clouds
8:20 PM 50.0 °F 41.0 °F 71% 30.04 in 6.2 mi Calm Calm - N/A   Partly Cloudy
8:50 PM 50.0 °F 41.0 °F 71% 30.04 in 6.2 mi Calm Calm - N/A   Partly Cloudy
9:20 PM 44.6 °F 41.0 °F 87% 30.04 in 6.2 mi Calm Calm - N/A   Partly Cloudy
9:50 PM 44.6 °F 41.0 °F 87% 30.06 in 6.2 mi Calm Calm - N/A   Partly Cloudy
10:20 PM 46.4 °F 41.0 °F 81% 30.06 in 6.2 mi Calm Calm - N/A   Partly Cloudy
10:50 PM 44.6 °F 41.0 °F 87% 30.09 in 6.2 mi Calm Calm - N/A   Partly Cloudy
11:20 PM 44.6 °F 41.0 °F 87% 30.09 in 6.2 mi Calm Calm - N/A   Partly Cloudy
11:50 PM 44.6 °F 41.0 °F 87% 30.09 in 6.2 mi Calm Calm - N/A   Partly Cloudy